Location: Nairn
(57.5833°N, 3.8667°W)
Time: 15:07:45
(UTC+00:00)

Vanguard 1 - Pass Details

Date: 28 November 2020
Orbit: 649 x 3834 km, 34.3° (Epoch: 14 January)

Event Time Altitude Azimuth Distance (km) Brightness Sun altitude
Rises 10:32:58 0° 253° (WSW) 5,039 13.7 8.8°
Reaches altitude 10° 10:37:48 10° 233° (SW) 4,610 13.8 9.0°
Maximum altitude 10:44:46 16° 201° (SSW) 4,838 14.5 9.3°
Drops below altitude 10° 10:53:41 10° 171° (S) 6,102 16.8 9.7°
Sets 11:02:13 0° 155° (SSE) 7,636 16.6 10.0°
